Weather History for KEWB - November, 2014

Change the Weather History Date:

Friday, November 28, 2014

  Actual Average Record
Temperature  
Mean Temperature 30 °F -  
Max Temperature 36 °F 51 °F 66 °F (1990)
Min Temperature 25 °F 37 °F 17 °F (1996)
Degree Days  
Heating Degree Days 34    
Moisture  
Dew Point 25 °F    
Average Humidity 81    
Maximum Humidity 96    
Minimum Humidity 50    
Precipitation  
Precipitation 0.00 in - - ()
Sea Level Pressure  
Sea Level Pressure 30.04 in    
Wind  
Wind Speed 7 mph (NW)    
Max Wind Speed 9 mph    
Max Gust Speed 18 mph    
Visibility 8 miles    
Events Snow    
Averages and records for this station are not official NWS values.
T = Trace of Precipitation, MM = Missing Value Source: NWS Daily Summary

Daily Weather History Graph

Daily Weather History Graph

Search for Another Location

Airport or City:

Trip Planner

Search our weather history database for the weather conditions in past years. The results will help you decide how hot, cold, wet, or windy it might be!

Date:

Astronomy

Nov. 28, 2014 Rise Set
Actual Time 6:48 AM EST 4:15 PM EST
Civil Twilight 6:17 AM EST 4:46 PM EST
Nautical Twilight 5:42 AM EST 5:20 PM EST
Astronomical Twilight 5:09 AM EST 5:53 PM EST
Moon 11:37 AM EST (11/28) 11:03 PM EST (11/28)
Length of Visible Light 10h 28m
Length of Day
9h 27m
Waxing Crescent, 42% of the Moon is Illuminated
Nov 28
Waxing Crescent
Nov 29
First Quarter
Dec 6
Full
Dec 14
Last Quarter
Dec 21
New

Hourly Weather History & Observations

Time (EST) Temp. Windchill Dew Point Humidity Pressure Visibility Wind Dir Wind Speed Gust Speed Precip Events Conditions
12:53 AM 30.9 °F 22.8 °F 28.9 °F 92% 29.97 in 5.0 mi NNW 9.2 mph - 0.00 in Snow Light Snow
1:00 AM 30.9 °F 24.3 °F 28.9 °F 92% 29.96 in 5.0 mi NNW 6.9 mph - 0.00 in Snow Light Snow
1:07 AM 30.9 °F 27.5 °F 28.9 °F 92% 29.97 in 4.0 mi Variable 3.5 mph - 0.00 in Snow Light Snow
1:15 AM 30.9 °F 25.2 °F 30.0 °F 96% 29.96 in 3.0 mi NNW 5.8 mph - 0.00 in Snow Light Snow
1:25 AM 30.9 °F 24.3 °F 28.9 °F 92% 29.96 in 2.0 mi NNW 6.9 mph - 0.00 in Snow Light Snow
1:32 AM 30.0 °F 24.1 °F 28.9 °F 96% 29.97 in 1.5 mi NW 5.8 mph - 0.00 in Snow Light Snow
1:39 AM 30.0 °F 24.1 °F 28.9 °F 96% 29.97 in 2.0 mi NW 5.8 mph - 0.00 in Snow Light Snow
1:53 AM 30.0 °F 24.1 °F 28.9 °F 96% 29.97 in 4.0 mi Variable 5.8 mph - 0.00 in Snow Light Snow
2:53 AM 30.0 °F 25.2 °F 28.0 °F 92% 29.96 in 10.0 mi Variable 4.6 mph - 0.00 in   Overcast
3:53 AM 30.0 °F 24.1 °F 28.9 °F 96% 29.97 in 10.0 mi NW 5.8 mph - 0.00 in   Overcast
4:10 AM 30.0 °F 23.2 °F 28.0 °F 92% 29.96 in 10.0 mi NW 6.9 mph - N/A   Overcast
4:45 AM 30.0 °F 24.1 °F 28.9 °F 96% 29.96 in 10.0 mi NNW 5.8 mph - N/A   Overcast
4:53 AM 30.0 °F 22.4 °F 28.9 °F 96% 29.97 in 10.0 mi NW 8.1 mph - N/A   Overcast
5:35 AM 30.0 °F 25.2 °F 28.0 °F 92% 29.96 in 9.0 mi Variable 4.6 mph - 0.00 in   Overcast
5:53 AM 30.0 °F 23.2 °F 28.0 °F 92% 29.98 in 10.0 mi Variable 6.9 mph - 0.00 in   Overcast
6:53 AM 30.0 °F 23.2 °F 28.0 °F 92% 30.00 in 5.0 mi NW 6.9 mph - 0.00 in Snow Light Snow
7:53 AM 30.0 °F 25.2 °F 28.0 °F 92% 30.02 in 5.0 mi Variable 4.6 mph - 0.00 in Snow Light Snow
8:20 AM 30.0 °F 22.4 °F 28.0 °F 92% 30.03 in 3.0 mi NW 8.1 mph - 0.00 in Snow Light Snow
8:44 AM 30.0 °F 22.4 °F 28.0 °F 92% 30.03 in 5.0 mi NW 8.1 mph - 0.00 in Snow Light Snow
8:53 AM 30.0 °F 24.1 °F 27.0 °F 88% 30.04 in 4.0 mi Variable 5.8 mph - 0.00 in Snow Light Snow
9:53 AM 30.9 °F 23.5 °F 27.0 °F 85% 30.05 in 10.0 mi NNW 8.1 mph - 0.00 in   Overcast
10:53 AM 32.0 °F 25.6 °F 26.1 °F 79% 30.04 in 10.0 mi Variable 6.9 mph - N/A   Overcast
11:53 AM 35.1 °F 28.6 °F 25.0 °F 67% 30.04 in 10.0 mi NW 8.1 mph 17.3 mph N/A   Overcast
12:53 PM 36.0 °F 29.0 °F 23.0 °F 59% 30.04 in 10.0 mi NNW 9.2 mph 18.4 mph N/A   Mostly Cloudy
1:53 PM 36.0 °F 30.3 °F 21.9 °F 57% 30.04 in 10.0 mi Variable 6.9 mph 17.3 mph N/A   Partly Cloudy
2:53 PM 36.0 °F 29.0 °F 19.0 °F 50% 30.06 in 10.0 mi NW 9.2 mph 17.3 mph N/A   Partly Cloudy
3:53 PM 34.0 °F 28.0 °F 19.0 °F 54% 30.09 in 10.0 mi Variable 6.9 mph - N/A   Scattered Clouds
4:53 PM 33.1 °F 28.7 °F 19.9 °F 59% 30.11 in 10.0 mi NNW 4.6 mph - N/A   Mostly Cloudy
5:53 PM 30.9 °F 22.8 °F 17.1 °F 57% 30.14 in 10.0 mi WNW 9.2 mph - N/A   Clear
6:53 PM 30.0 °F 23.2 °F 17.1 °F 59% 30.16 in 10.0 mi WNW 6.9 mph - N/A   Clear
7:53 PM 28.9 °F 23.9 °F 18.0 °F 64% 30.17 in 10.0 mi WNW 4.6 mph - N/A   Clear
8:53 PM 28.0 °F 22.8 °F 18.0 °F 66% 30.18 in 10.0 mi NW 4.6 mph - N/A   Clear
9:53 PM 27.0 °F 21.6 °F 18.0 °F 69% 30.19 in 10.0 mi WNW 4.6 mph - N/A   Clear
10:53 PM 25.0 °F 18.1 °F 17.1 °F 72% 30.21 in 10.0 mi WNW 5.8 mph - N/A   Clear
11:53 PM 25.0 °F 17.1 °F 17.1 °F 72% 30.22 in 10.0 mi WNW 6.9 mph - N/A   Clear